PGT19D EDDN-EDDL

Flight info

Callsign PGT19D
Flight time 0h 54m
Altitude 30000
Route SULUS1G SULUS L604 MASEK Z52 ARPEG Z850 ADEMI T854 DOMUX DOMUX1A
Aircraft A320/M-SDE3FGHIRWY/LB1

Departure

Time 2026-05-04 18:24
Airport Nuremberg Airport (EDDN)

Arrival

Time 2026-05-04 19:18
Airport Düsseldorf Airport (EDDL)
Time Latitude Longitude Altitude Speed Heading
2026-05-04 17:50 49.49523 11.07724 1024 ft 0 kts 188°
2026-05-04 18:08 49.49540 11.07728 1024 ft 4 kts 188°
2026-05-04 18:09 49.49587 11.07720 1026 ft 4 kts 116°
2026-05-04 18:09 49.49592 11.07697 1026 ft 0 kts 98°
2026-05-04 18:11 49.49592 11.07698 1026 ft 1 kts 98°
2026-05-04 18:12 49.49589 11.07730 1027 ft 4 kts 98°
2026-05-04 18:12 49.49583 11.07798 1026 ft 9 kts 98°
2026-05-04 18:12 49.49571 11.07922 1026 ft 13 kts 98°
2026-05-04 18:12 49.49558 11.08053 1026 ft 12 kts 99°
2026-05-04 18:13 49.49546 11.08169 1028 ft 12 kts 100°
2026-05-04 18:13 49.49535 11.08288 1029 ft 10 kts 96°
2026-05-04 18:13 49.49595 11.08363 1032 ft 7 kts 27°
2026-05-04 18:14 49.49613 11.08478 1034 ft 16 kts 99°
2026-05-04 18:14 49.49594 11.08649 1036 ft 15 kts 98°
2026-05-04 18:14 49.49580 11.08800 1037 ft 13 kts 99°
2026-05-04 18:15 49.49557 11.09018 1039 ft 8 kts 99°
2026-05-04 18:15 49.49549 11.09111 1041 ft 1 kts 98°
2026-05-04 18:15 49.49542 11.09192 1042 ft 15 kts 97°
2026-05-04 18:16 49.49533 11.09355 1046 ft 14 kts 77°
2026-05-04 18:16 49.49578 11.09461 1048 ft 10 kts 53°
2026-05-04 18:16 49.49595 11.09497 1050 ft 0 kts 53°
2026-05-04 18:21 49.49596 11.09498 1050 ft 2 kts 53°
2026-05-04 18:21 49.49622 11.09548 1051 ft 10 kts 43°
2026-05-04 18:21 49.49675 11.09587 1053 ft 7 kts 14°
2026-05-04 18:21 49.49696 11.09555 1052 ft 4 kts 287°
2026-05-04 18:22 49.49699 11.09534 1052 ft 0 kts 279°
2026-05-04 18:23 49.49700 11.09523 1052 ft 5 kts 279°
2026-05-04 18:23 49.49736 11.09169 1046 ft 71 kts 278°
2026-05-04 18:23 49.49845 11.08068 1031 ft 134 kts 278°
2026-05-04 18:24 49.50016 11.06461 1343 ft 157 kts 282°
2026-05-04 18:24 49.50191 11.04796 2059 ft 158 kts 280°
2026-05-04 18:24 49.50342 11.03112 2746 ft 159 kts 280°
2026-05-04 18:24 49.50485 11.01364 3182 ft 175 kts 279°
2026-05-04 18:25 49.50667 10.99407 3516 ft 195 kts 280°
2026-05-04 18:25 49.50886 10.97216 3794 ft 220 kts 279°
2026-05-04 18:25 49.51163 10.94779 4185 ft 244 kts 287°
2026-05-04 18:25 49.52124 10.92540 4614 ft 265 kts 324°
2026-05-04 18:26 49.53830 10.91521 5306 ft 274 kts 353°
2026-05-04 18:26 49.55754 10.91479 6174 ft 279 kts
2026-05-04 18:26 49.57704 10.91791 7032 ft 284 kts
2026-05-04 18:26 49.59686 10.92160 7859 ft 290 kts
2026-05-04 18:27 49.61706 10.92070 8671 ft 294 kts 346°
2026-05-04 18:27 49.63025 10.91563 9221 ft 296 kts 343°
2026-05-04 18:27 49.65033 10.90745 10049 ft 301 kts 342°
2026-05-04 18:27 49.67121 10.89874 10445 ft 322 kts 342°
2026-05-04 18:28 49.69351 10.88934 10862 ft 339 kts 342°
2026-05-04 18:28 49.71652 10.87963 11571 ft 346 kts 342°
2026-05-04 18:28 49.73989 10.86981 12339 ft 350 kts 342°
2026-05-04 18:28 49.76355 10.85992 13108 ft 354 kts 342°
2026-05-04 18:29 49.78749 10.84991 13851 ft 359 kts 342°
2026-05-04 18:29 49.81172 10.83978 14512 ft 362 kts 342°
2026-05-04 18:29 49.83613 10.82957 15185 ft 365 kts 342°
2026-05-04 18:29 49.86077 10.81924 15864 ft 368 kts 342°
2026-05-04 18:30 49.91063 10.79825 17219 ft 374 kts 342°
2026-05-04 18:30 49.93586 10.78762 17881 ft 377 kts 342°
2026-05-04 18:30 49.96132 10.77690 18219 ft 379 kts 342°
2026-05-04 18:31 49.98676 10.76617 18455 ft 380 kts 342°
2026-05-04 18:31 50.01230 10.75536 18689 ft 381 kts 341°
2026-05-04 18:31 50.03800 10.74444 19154 ft 384 kts 341°
2026-05-04 18:31 50.06289 10.72949 19707 ft 384 kts 330°
2026-05-04 18:32 50.08553 10.70774 20265 ft 383 kts 319°
2026-05-04 18:32 50.10524 10.67994 20800 ft 382 kts 310°
2026-05-04 18:32 50.12357 10.64967 21335 ft 386 kts 310°
2026-05-04 18:32 50.14207 10.61923 21864 ft 389 kts 310°
2026-05-04 18:33 50.16078 10.58852 22386 ft 392 kts 310°
2026-05-04 18:33 50.17960 10.55763 22912 ft 395 kts 310°
2026-05-04 18:33 50.19857 10.52647 23405 ft 398 kts 310°
2026-05-04 18:33 50.21769 10.49506 23863 ft 400 kts 310°
2026-05-04 18:34 50.23694 10.46350 24299 ft 402 kts 310°
2026-05-04 18:34 50.25645 10.43199 24742 ft 404 kts 310°
2026-05-04 18:34 50.27618 10.40047 25193 ft 406 kts 311°
2026-05-04 18:34 50.29601 10.36887 25613 ft 408 kts 310°
2026-05-04 18:35 50.31589 10.33705 25875 ft 409 kts 310°
2026-05-04 18:35 50.33572 10.30512 25964 ft 409 kts 310°
2026-05-04 18:35 50.35537 10.27303 25974 ft 408 kts 309°
2026-05-04 18:35 50.37415 10.23979 25975 ft 407 kts 306°
2026-05-04 18:36 50.39270 10.20632 25981 ft 407 kts 308°
2026-05-04 18:36 50.41165 10.17373 26324 ft 411 kts 309°
2026-05-04 18:36 50.43138 10.14115 26752 ft 413 kts 310°
2026-05-04 18:36 50.45137 10.10862 27163 ft 415 kts 309°
2026-05-04 18:37 50.47126 10.07564 27575 ft 417 kts 309°
2026-05-04 18:37 50.49104 10.04222 27974 ft 419 kts 308°
2026-05-04 18:37 50.51075 10.00846 28357 ft 421 kts 308°
2026-05-04 18:37 50.53054 9.97437 28729 ft 423 kts 307°
2026-05-04 18:38 50.55028 9.94002 28947 ft 424 kts 307°
2026-05-04 18:38 50.58816 9.86944 28982 ft 421 kts 304°
2026-05-04 18:39 50.62511 9.79783 28980 ft 421 kts 304°
2026-05-04 18:39 50.66205 9.72633 28973 ft 420 kts 304°
2026-05-04 18:39 50.68039 9.69138 28976 ft 405 kts 304°
2026-05-04 18:40 50.69824 9.65761 29205 ft 399 kts 304°
2026-05-04 18:40 50.71474 9.62283 29469 ft 394 kts 297°
2026-05-04 18:40 50.72746 9.58504 29756 ft 388 kts 288°
2026-05-04 18:40 50.73625 9.54506 29951 ft 383 kts 279°
2026-05-04 18:41 50.74204 9.50467 29976 ft 381 kts 278°
2026-05-04 18:41 50.75319 9.42287 29978 ft 381 kts 278°
2026-05-04 18:42 50.76426 9.34087 29973 ft 382 kts 278°
2026-05-04 18:42 50.77535 9.25895 29972 ft 381 kts 278°
2026-05-04 18:43 50.78637 9.17705 29966 ft 377 kts 278°
2026-05-04 18:43 50.79175 9.13716 29704 ft 367 kts 277°
2026-05-04 18:43 50.79700 9.09797 29264 ft 362 kts 277°
2026-05-04 18:43 50.80218 9.05921 28764 ft 359 kts 277°
2026-05-04 18:44 50.80728 9.02069 28272 ft 357 kts 277°
2026-05-04 18:44 50.81061 8.99531 27939 ft 355 kts 277°
2026-05-04 18:44 50.81724 8.94434 27290 ft 352 kts 277°
2026-05-04 18:44 50.82247 8.90663 26811 ft 352 kts 281°
2026-05-04 18:45 50.83056 8.87006 26341 ft 353 kts 289°
2026-05-04 18:45 50.84168 8.83533 25873 ft 354 kts 294°
2026-05-04 18:45 50.85321 8.80110 25540 ft 352 kts 294°
2026-05-04 18:45 50.86468 8.76680 25295 ft 353 kts 294°
2026-05-04 18:46 50.87610 8.73249 25072 ft 352 kts 294°
2026-05-04 18:46 50.88748 8.69820 24955 ft 351 kts 294°
2026-05-04 18:46 50.89882 8.66392 24975 ft 352 kts 294°
2026-05-04 18:46 50.91016 8.62960 24981 ft 352 kts 294°
2026-05-04 18:47 50.92154 8.59521 24978 ft 352 kts 294°
2026-05-04 18:47 50.93289 8.56087 24981 ft 352 kts 294°
2026-05-04 18:47 50.94424 8.52647 24984 ft 352 kts 293°
2026-05-04 18:47 50.95558 8.49207 24986 ft 352 kts 293°
2026-05-04 18:48 50.96691 8.45766 24987 ft 352 kts 293°
2026-05-04 18:48 50.97820 8.42333 24933 ft 350 kts 293°
2026-05-04 18:48 50.98942 8.38918 24489 ft 348 kts 294°
2026-05-04 18:48 51.00064 8.35532 24063 ft 347 kts 296°
2026-05-04 18:49 51.01438 8.32375 23641 ft 349 kts 307°
2026-05-04 18:49 51.03170 8.29660 23169 ft 351 kts 317°
2026-05-04 18:49 51.05198 8.27485 22702 ft 353 kts 327°
2026-05-04 18:49 51.07346 8.25589 22239 ft 352 kts 327°
2026-05-04 18:50 51.09480 8.23694 21797 ft 350 kts 327°
2026-05-04 18:50 51.11600 8.21807 21376 ft 349 kts 327°
2026-05-04 18:50 51.13714 8.19924 20951 ft 347 kts 327°
2026-05-04 18:50 51.15786 8.18071 20536 ft 345 kts 327°
2026-05-04 18:51 51.17876 8.16201 20120 ft 344 kts 327°
2026-05-04 18:51 51.19963 8.14335 19714 ft 343 kts 327°
2026-05-04 18:51 51.22041 8.12479 19326 ft 342 kts 327°
2026-05-04 18:51 51.24114 8.10625 18944 ft 341 kts 327°
2026-05-04 18:52 51.26180 8.08770 18571 ft 340 kts 327°
2026-05-04 18:52 51.28246 8.06917 18191 ft 340 kts 327°
2026-05-04 18:52 51.30297 8.05076 17792 ft 339 kts 327°
2026-05-04 18:52 51.32344 8.03237 17406 ft 337 kts 328°
2026-05-04 18:53 51.34383 8.01404 17036 ft 335 kts 328°
2026-05-04 18:53 51.36409 7.99572 16677 ft 334 kts 328°
2026-05-04 18:53 51.38437 7.97785 16332 ft 332 kts 334°
2026-05-04 18:53 51.40653 7.96939 16190 ft 327 kts 358°
2026-05-04 18:54 51.42877 7.97400 16062 ft 318 kts 12°
2026-05-04 18:54 51.45007 7.98200 15933 ft 311 kts 13°
2026-05-04 18:54 51.47082 7.99013 15810 ft 303 kts 14°
2026-05-04 18:54 51.49110 7.99812 15648 ft 298 kts 14°
2026-05-04 18:55 51.51112 8.00602 15438 ft 295 kts 14°
2026-05-04 18:55 51.55044 8.02159 14944 ft 291 kts 14°
2026-05-04 18:55 51.57032 8.02947 14690 ft 290 kts 14°
2026-05-04 18:56 51.58955 8.03711 14447 ft 288 kts 13°
2026-05-04 18:56 51.60929 8.03953 14207 ft 284 kts 348°
2026-05-04 18:56 51.62722 8.02790 14022 ft 278 kts 320°
2026-05-04 18:56 51.63940 8.00461 13974 ft 271 kts 291°
2026-05-04 18:57 51.64319 7.97546 13980 ft 266 kts 263°
2026-05-04 18:57 51.64022 7.94612 13974 ft 266 kts 255°
2026-05-04 18:57 51.63597 7.91717 13982 ft 266 kts 253°
2026-05-04 18:57 51.63155 7.88824 13970 ft 266 kts 253°
2026-05-04 18:58 51.62710 7.85931 13976 ft 266 kts 253°
2026-05-04 18:58 51.62264 7.83037 13977 ft 267 kts 253°
2026-05-04 18:58 51.61819 7.80142 13972 ft 267 kts 253°
2026-05-04 18:58 51.61371 7.77246 13969 ft 267 kts 253°
2026-05-04 18:59 51.60924 7.74353 13979 ft 266 kts 253°
2026-05-04 18:59 51.60219 7.71644 13976 ft 262 kts 231°
2026-05-04 18:59 51.59022 7.69442 13973 ft 262 kts 224°
2026-05-04 18:59 51.57749 7.67350 13976 ft 262 kts 224°
2026-05-04 19:00 51.56467 7.65271 13956 ft 261 kts 224°
2026-05-04 19:00 51.55207 7.63234 13700 ft 260 kts 224°
2026-05-04 19:00 51.53916 7.61146 13397 ft 259 kts 224°
2026-05-04 19:00 51.52664 7.59124 13116 ft 258 kts 224°
2026-05-04 19:01 51.51398 7.57083 12831 ft 257 kts 224°
2026-05-04 19:01 51.50134 7.55051 12544 ft 256 kts 224°
2026-05-04 19:01 51.48878 7.53035 12269 ft 255 kts 224°
2026-05-04 19:01 51.47624 7.51025 11978 ft 254 kts 224°
2026-05-04 19:02 51.46372 7.49025 11697 ft 253 kts 224°
2026-05-04 19:02 51.45126 7.47039 11420 ft 252 kts 224°
2026-05-04 19:02 51.43883 7.45061 11131 ft 251 kts 224°
2026-05-04 19:02 51.42646 7.43100 10847 ft 250 kts 224°
2026-05-04 19:03 51.41409 7.41141 10569 ft 249 kts 223°
2026-05-04 19:03 51.40182 7.39196 10290 ft 248 kts 224°
2026-05-04 19:03 51.38956 7.37260 10004 ft 247 kts 223°
2026-05-04 19:03 51.37737 7.35336 9705 ft 246 kts 224°
2026-05-04 19:04 51.36522 7.33425 9394 ft 244 kts 223°
2026-05-04 19:04 51.35315 7.31529 9083 ft 242 kts 223°
2026-05-04 19:04 51.34121 7.29653 8783 ft 240 kts 223°
2026-05-04 19:04 51.32934 7.27790 8467 ft 238 kts 223°
2026-05-04 19:05 51.31758 7.25946 8154 ft 236 kts 223°
2026-05-04 19:05 51.30590 7.24115 7842 ft 234 kts 223°
2026-05-04 19:05 51.29432 7.22304 7531 ft 232 kts 223°
2026-05-04 19:05 51.29040 7.21692 7430 ft 232 kts 223°
2026-05-04 19:06 51.28314 7.20555 7221 ft 231 kts 223°
2026-05-04 19:06 51.27173 7.18767 7018 ft 228 kts 223°
2026-05-04 19:06 51.26042 7.16978 6971 ft 229 kts 227°
2026-05-04 19:06 51.25309 7.14736 6978 ft 233 kts 258°
2026-05-04 19:07 51.25449 7.12152 6977 ft 240 kts 289°
2026-05-04 19:07 51.26442 7.09991 6977 ft 248 kts 317°
2026-05-04 19:07 51.27836 7.08338 6979 ft 250 kts 323°
2026-05-04 19:07 51.29299 7.06823 6972 ft 252 kts 332°
2026-05-04 19:08 51.31009 7.06259 6976 ft 255 kts
2026-05-04 19:08 51.32682 7.07136 6978 ft 256 kts 35°
2026-05-04 19:08 51.33957 7.09099 6979 ft 256 kts 51°
2026-05-04 19:08 51.35075 7.11301 6812 ft 254 kts 53°
2026-05-04 19:09 51.36166 7.13529 6479 ft 254 kts 53°
2026-05-04 19:09 51.37245 7.15758 6128 ft 253 kts 53°
2026-05-04 19:09 51.38319 7.17986 5797 ft 252 kts 53°
2026-05-04 19:09 51.39385 7.20207 5457 ft 251 kts 53°
2026-05-04 19:10 51.40440 7.22415 5145 ft 249 kts 53°
2026-05-04 19:10 51.41673 7.24252 5008 ft 247 kts 26°
2026-05-04 19:10 51.43321 7.24859 5008 ft 245 kts 354°
2026-05-04 19:10 51.44918 7.24105 4754 ft 239 kts 329°
2026-05-04 19:11 51.46331 7.22710 4386 ft 238 kts 321°
2026-05-04 19:11 51.47362 7.20720 4054 ft 232 kts 293°
2026-05-04 19:11 51.47755 7.18258 3716 ft 228 kts 269°
2026-05-04 19:11 51.47511 7.15781 3358 ft 225 kts 247°
2026-05-04 19:12 51.46704 7.13650 3053 ft 223 kts 231°
2026-05-04 19:12 51.44820 7.09642 3001 ft 226 kts 232°
2026-05-04 19:12 51.43891 7.07663 3003 ft 217 kts 232°
2026-05-04 19:13 51.42985 7.05738 3010 ft 216 kts 232°
2026-05-04 19:13 51.42083 7.03822 3016 ft 213 kts 232°
2026-05-04 19:13 51.41219 7.01988 3004 ft 200 kts 231°
2026-05-04 19:13 51.40400 7.00251 3030 ft 188 kts 231°
2026-05-04 19:14 51.39635 6.98629 2996 ft 179 kts 231°
2026-05-04 19:14 51.38891 6.97055 3000 ft 176 kts 231°
2026-05-04 19:14 51.38154 6.95496 2871 ft 175 kts 231°
2026-05-04 19:14 51.37420 6.93943 2667 ft 175 kts 231°
2026-05-04 19:15 51.36688 6.92397 2446 ft 174 kts 231°
2026-05-04 19:15 51.35961 6.90860 2205 ft 173 kts 231°
2026-05-04 19:15 51.35236 6.89328 1983 ft 171 kts 231°
2026-05-04 19:15 51.34552 6.87884 1767 ft 154 kts 231°
2026-05-04 19:16 51.33931 6.86573 1559 ft 143 kts 231°
2026-05-04 19:16 51.33336 6.85320 1372 ft 140 kts 231°
2026-05-04 19:16 51.32759 6.84105 1184 ft 138 kts 230°
2026-05-04 19:16 51.32181 6.82887 1003 ft 138 kts 230°
2026-05-04 19:17 51.31603 6.81671 798 ft 137 kts 231°
2026-05-04 19:17 51.31026 6.80456 628 ft 137 kts 231°
2026-05-04 19:17 51.30447 6.79232 412 ft 138 kts 230°
2026-05-04 19:17 51.29865 6.78010 238 ft 137 kts 231°
2026-05-04 19:18 51.29315 6.76843 136 ft 118 kts 232°
2026-05-04 19:18 51.29023 6.76242 136 ft 84 kts 232°
2026-05-04 19:18 51.28809 6.75812 134 ft 33 kts 220°
2026-05-04 19:18 51.28621 6.75671 136 ft 23 kts 179°
2026-05-04 19:19 51.28570 6.75688 136 ft 0 kts 165°
2026-05-04 19:22 51.28561 6.75691 136 ft 6 kts 165°
2026-05-04 19:23 51.28512 6.75721 137 ft 8 kts 153°
2026-05-04 19:23 51.28468 6.75768 137 ft 8 kts 143°
2026-05-04 19:23 51.28445 6.75795 136 ft 0 kts 143°